Simultaneous Nadir Overpasses (SNOs) Predictions

Prediction of SNOs between NPP and TERRA Satellite Orbit:

Table of predicted SNOs for the next 14.0 days since TLE Epoch: 7/6/2024
Index Date (NPP) Time (NPP) Lat,Lon (NPP) SZA (NPP ) Date (TERRA) Time (TERRA) Lat,Lon (TERRA) SZA (TERRA ) Distance(km) Time Diff (sec)
1 07/08/2024 09:05:23 -72.35,-143.78 129.90 07/08/2024 09:05:44 -72.33,-143.80 129.92 1.89 21
2 07/08/2024 09:56:08 72.28, 23.66 50.03 07/08/2024 09:55:05 72.26, 23.73 50.02 3.35 63
3 07/10/2024 20:17:53 -72.41, 47.98 129.52 07/10/2024 20:18:53 -72.38, 47.95 129.57 3.24 60
4 07/10/2024 21:08:37 72.29,-144.47 50.35 07/10/2024 21:08:14 72.30,-144.52 50.38 2.39 23
5 07/13/2024 08:21:07 72.35, 47.27 50.78 07/13/2024 08:21:22 72.37, 47.28 50.79 2.42 15
6 07/13/2024 09:11:49 -72.27,-145.24 129.31 07/13/2024 09:10:46 -72.28,-145.22 129.29 1.93 63
7 07/15/2024 19:33:37 72.43,-120.99 51.25 07/15/2024 19:34:30 72.41,-120.97 51.22 1.49 53
8 07/15/2024 20:24:19 -72.34, 46.50 128.85 07/15/2024 20:23:54 -72.32, 46.52 128.86 1.98 25
9 07/18/2024 06:46:20 73.16, 69.35 52.49 07/18/2024 06:47:26 73.07, 71.93 52.23 84.05 66
10 07/18/2024 07:36:48 -72.36,-121.67 128.39 07/18/2024 07:37:01 -72.38,-121.70 128.38 1.95 13
11 07/18/2024 08:27:33 72.30, 45.76 51.55 07/18/2024 08:26:22 72.31, 45.85 51.57 3.21 71



Historial Predications of SNOs between NPP and TERRA
